Clarinda, IA

12:35 AM CST on January 24, 2018 (GMT -0600)
Schenck

Weather History for KICL - November, 2011

Change the Weather History Date:

Tuesday, November 15, 2011

  Actual Average Record
Temperature  
Mean Temperature 44 °F -  
Max Temperature 57 °F 50 °F 77 °F (2001)
Min Temperature 26 °F 30 °F 19 °F (2000)
Degree Days  
Heating Degree Days 22    
Moisture  
Dew Point 25 °F    
Average Humidity 56    
Maximum Humidity 93    
Minimum Humidity 20    
Precipitation  
Precipitation 0.00 in - - ()
Sea Level Pressure  
Sea Level Pressure 29.82 in    
Wind  
Wind Speed 5 mph (NNW)    
Max Wind Speed 16 mph    
Max Gust Speed 20 mph    
Visibility 10 miles    
Events      
Averages and records for this station are not official NWS values.
T = Trace of Precipitation, MM = Missing Value Source: NWS Daily Summary

Daily Weather History Graph

Daily Weather History Graph

Search for Another Location

Airport or City:

Trip Planner

Search our weather history database for the weather conditions in past years. The results will help you decide how hot, cold, wet, or windy it might be!

Date:

Astronomy

Nov. 15, 2011 Rise Set
Actual Time 7:06 AM CST 5:02 PM CST
Civil Twilight 6:37 AM CST 5:31 PM CST
Nautical Twilight 6:04 AM CST 6:04 PM CST
Astronomical Twilight 5:31 AM CST 6:37 PM CST
Moon 9:12 PM CST (11/15) 11:06 AM CST (11/15)
Length of Visible Light 10h 54m
Length of Day
9h 55m
Waning Gibbous, 79% of the Moon is Illuminated
Nov 15
Waning Gibbous
Nov 18
Last Quarter
Nov 25
New
Dec 2
First Quarter
Dec 10
Full

Hourly Weather History & Observations

Time (CST) Temp. Windchill Dew Point Humidity Pressure Visibility Wind Dir Wind Speed Gust Speed Precip Events Conditions
12:15 AM 37.4 °F 34.9 °F 30.2 °F 75% 29.69 in 10.0 mi South 3.5 mph - N/A   Clear
12:37 AM 35.6 °F 31.7 °F 30.2 °F 81% 29.68 in 10.0 mi SSE 4.6 mph - N/A   Clear
12:57 AM 37.4 °F 33.8 °F 30.2 °F 75% 29.68 in 10.0 mi South 4.6 mph - N/A   Clear
1:19 AM 35.6 °F - 30.2 °F 81% 29.67 in 10.0 mi Calm Calm - N/A   Clear
1:37 AM 33.8 °F 30.8 °F 28.4 °F 81% 29.66 in 10.0 mi SSE 3.5 mph - N/A   Clear
1:57 AM 35.6 °F 32.8 °F 30.2 °F 81% 29.65 in 10.0 mi South 3.5 mph - N/A   Clear
2:27 AM 35.6 °F 32.8 °F 28.4 °F 75% 29.66 in 10.0 mi South 3.5 mph - N/A   Clear
3:16 AM 30.2 °F - 26.6 °F 86% 29.69 in 10.0 mi Calm Calm - N/A   Clear
3:35 AM 30.2 °F - 28.4 °F 93% 29.68 in 10.0 mi Calm Calm - N/A   Clear
3:56 AM 30.2 °F - 28.4 °F 93% 29.66 in 10.0 mi Calm Calm - N/A   Clear
4:15 AM 32.0 °F 26.4 °F 26.6 °F 80% 29.66 in 10.0 mi South 5.8 mph - N/A   Clear
4:35 AM 35.6 °F 29.2 °F 28.4 °F 75% 29.66 in 10.0 mi South 8.1 mph - N/A   Clear
4:56 AM 33.8 °F - 28.4 °F 81% 29.66 in 10.0 mi Calm Calm - N/A   Clear
5:15 AM 33.8 °F - 28.4 °F 81% 29.66 in 10.0 mi Calm Calm - N/A   Clear
5:35 AM 32.0 °F - 26.6 °F 80% 29.67 in 10.0 mi Calm Calm - N/A   Clear
6:57 AM 30.2 °F - 24.8 °F 80% 29.67 in 10.0 mi Calm Calm - N/A   Clear
7:18 AM 30.2 °F 25.4 °F 28.4 °F 93% 29.69 in 10.0 mi South 4.6 mph - N/A   Clear
7:35 AM 32.0 °F - 26.6 °F 80% 29.69 in 10.0 mi Calm Calm - N/A   Clear
8:16 AM 33.8 °F - 30.2 °F 87% 29.69 in 10.0 mi Calm Calm - N/A   Clear
8:56 AM 39.2 °F - 33.8 °F 81% 29.70 in 10.0 mi Calm Calm - N/A   Clear
9:15 AM 42.8 °F - 33.8 °F 70% 29.71 in 10.0 mi Calm Calm - N/A   Clear
9:35 AM 42.8 °F - 35.6 °F 76% 29.73 in 10.0 mi Calm Calm - N/A   Clear
10:17 AM 48.2 °F - 32.0 °F 54% 29.75 in 10.0 mi NW 5.8 mph - N/A   Clear
10:37 AM 50.0 °F - 32.0 °F 50% 29.76 in 10.0 mi Calm Calm - N/A   Clear
10:55 AM 51.8 °F - 32.0 °F 47% 29.77 in 10.0 mi Calm Calm - N/A   Clear
11:35 AM 55.4 °F - 26.6 °F 33% 29.77 in 10.0 mi NNW 5.8 mph - N/A   Clear
11:57 AM 55.4 °F - 26.6 °F 33% 29.75 in 10.0 mi NNW 10.4 mph - N/A   Clear
12:15 PM 57.2 °F - 24.8 °F 29% 29.75 in 10.0 mi North 10.4 mph - N/A   Clear
12:36 PM 57.2 °F - 24.8 °F 29% 29.76 in 10.0 mi NNW 9.2 mph - N/A   Clear
1:15 PM 57.2 °F - 23.0 °F 27% 29.76 in 10.0 mi NNW 11.5 mph 18.4 mph N/A   Clear
1:35 PM 57.2 °F - 23.0 °F 27% 29.76 in 10.0 mi NNW 9.2 mph - N/A   Clear
1:56 PM 57.2 °F - 21.2 °F 25% 29.77 in 10.0 mi NNW 16.1 mph - N/A   Clear
2:15 PM 57.2 °F - 21.2 °F 25% 29.78 in 10.0 mi North 13.8 mph - N/A   Clear
2:35 PM 57.2 °F - 17.6 °F 21% 29.78 in 10.0 mi NNW 12.7 mph - N/A   Clear
2:55 PM 57.2 °F - 15.8 °F 20% 29.79 in 10.0 mi North 13.8 mph - N/A   Clear
3:15 PM 55.4 °F - 14.0 °F 20% 29.80 in 10.0 mi North 15.0 mph - N/A   Clear
3:37 PM 55.4 °F - 15.8 °F 21% 29.81 in 10.0 mi North 13.8 mph 19.6 mph N/A   Clear
4:15 PM 51.8 °F - 19.4 °F 28% 29.84 in 10.0 mi NNW 16.1 mph 19.6 mph N/A   Clear
4:38 PM 51.8 °F - 21.2 °F 30% 29.86 in 10.0 mi North 10.4 mph - N/A   Clear
4:56 PM 48.2 °F - 23.0 °F 37% 29.86 in 10.0 mi North 10.4 mph - N/A   Clear
5:15 PM 46.4 °F 41.1 °F 21.2 °F 37% 29.88 in 10.0 mi North 11.5 mph 17.3 mph N/A   Clear
5:35 PM 46.4 °F 41.9 °F 21.2 °F 37% 29.89 in 10.0 mi NNW 9.2 mph - N/A   Clear
5:56 PM 44.6 °F 39.7 °F 21.2 °F 39% 29.91 in 10.0 mi NNW 9.2 mph - N/A   Clear
6:15 PM 44.6 °F 38.8 °F 21.2 °F 39% 29.92 in 10.0 mi NNW 11.5 mph - N/A   Clear
6:35 PM 42.8 °F 37.5 °F 23.0 °F 46% 29.94 in 10.0 mi NNW 9.2 mph - N/A   Clear
6:57 PM 42.8 °F 37.5 °F 21.2 °F 42% 29.95 in 10.0 mi NNW 9.2 mph - N/A   Clear
7:17 PM 42.8 °F 36.2 °F 21.2 °F 42% 29.96 in 10.0 mi NNW 12.7 mph 16.1 mph N/A   Clear
7:36 PM 42.8 °F 36.6 °F 21.2 °F 42% 29.97 in 10.0 mi NNW 11.5 mph - N/A   Clear
7:56 PM 41.0 °F 33.9 °F 19.4 °F 42% 29.97 in 10.0 mi NNW 12.7 mph 17.3 mph N/A   Clear
8:16 PM 39.2 °F 33.0 °F 21.2 °F 49% 29.99 in 10.0 mi NNW 9.2 mph - N/A   Clear
8:36 PM 39.2 °F 33.6 °F 21.2 °F 49% 30.00 in 10.0 mi NNW 8.1 mph - N/A   Clear
8:58 PM 37.4 °F 33.8 °F 21.2 °F 52% 30.01 in 10.0 mi North 4.6 mph - N/A   Clear
9:17 PM 35.6 °F 32.8 °F 21.2 °F 56% 30.02 in 10.0 mi North 3.5 mph - N/A   Clear
9:36 PM 33.8 °F 28.6 °F 21.2 °F 60% 30.03 in 10.0 mi NNE 5.8 mph - N/A   Clear
9:57 PM 33.8 °F 27.7 °F 21.2 °F 60% 30.04 in 10.0 mi North 6.9 mph - N/A   Clear
10:18 PM 30.2 °F 23.4 °F 21.2 °F 69% 30.04 in 10.0 mi North 6.9 mph - N/A   Clear
10:37 PM 30.2 °F 23.4 °F 21.2 °F 69% 30.04 in 10.0 mi North 6.9 mph - N/A   Clear
10:58 PM 30.2 °F 23.4 °F 21.2 °F 69% 30.04 in 10.0 mi North 6.9 mph - N/A   Clear
11:19 PM 30.2 °F 23.4 °F 19.4 °F 64% 30.05 in 10.0 mi North 6.9 mph - N/A   Clear
11:38 PM 30.2 °F 25.4 °F 19.4 °F 64% 30.05 in 10.0 mi North 4.6 mph - N/A   Clear
11:57 PM 26.6 °F 19.1 °F 19.4 °F 74% 30.06 in 10.0 mi NNE 6.9 mph - N/A   Clear